Simultaneous Nadir Overpasses (SNOs) Predictions

Prediction of SNOs between AQUA and METOP-C Satellite Orbit:

Table of predicted SNOs for the next 14.0 days since TLE Epoch: 7/14/2024
Index Date (AQUA) Time (AQUA) Lat,Lon (AQUA) SZA (AQUA ) Date (METOP-C) Time (METOP-C) Lat,Lon (METOP-C) SZA (METOP-C ) Distance(km) Time Diff (sec)
1 07/16/2024 13:10:39 -75.50, 161.23 125.79 07/16/2024 13:09:47 -75.50, 161.32 125.79 2.34 52
2 07/16/2024 14:00:02 75.53, -31.21 54.25 07/16/2024 14:00:25 75.55, -31.18 54.27 2.34 23
3 07/19/2024 04:31:30 75.47, 111.14 54.65 07/19/2024 04:30:44 75.49, 111.06 54.67 2.97 46
4 07/19/2024 05:20:53 -75.56, -81.45 125.26 07/19/2024 05:21:25 -75.56, -81.40 125.26 1.15 32
5 07/21/2024 19:52:20 -75.51, 60.86 124.80 07/21/2024 19:51:43 -75.53, 60.94 124.79 2.91 37
6 07/21/2024 20:41:43 75.56,-131.62 55.26 07/21/2024 20:42:21 75.58,-131.56 55.28 2.61 38
7 07/24/2024 11:13:08 75.50, 10.75 55.73 07/24/2024 11:12:40 75.49, 10.60 55.73 4.08 28
8 07/24/2024 12:02:31 -75.58, 178.18 124.18 07/24/2024 12:03:21 -75.56, 178.15 124.20 1.91 50
9 07/27/2024 02:33:55 -75.54, -39.50 123.65 07/27/2024 02:33:38 -75.56, -39.43 123.63 3.18 17



Historial Predications of SNOs between AQUA and METOP-C
